Location: Ferchesar
(52.6477°N, 12.4298°E)
Time: 01:42:28
(UTC+01:00)

Transit 2A - Pass Details

Date: 16 December 2021
Orbit: 591 x 967 km, 66.7° (Epoch: 17 January)

Event Time Altitude Azimuth Distance (km) Brightness Sun altitude
Exits shadow 06:42:32 17° 302° (WNW) 2,229 7.8 -13.1°
Maximum altitude 06:46:42 36° 247° (WSW) 1,468 7.1 -12.5°
Drops below altitude 10° 06:52:09 10° 183° (S) 2,582 9.0 -11.7°
Sets 06:54:45 0° 175° (S) 3,469 9.8 -11.4°
